• In Deutschland
  • Länderverzeichnis
  • Für 7 Tage
  • Wassertemperatur
  • Satellitenkarten
  • Wetterkarte
  • Widgets
  • user-avatar
    Anmelden

    Stündliche Wetter San Juan

    Heute, 26 Juli, Mittwoch

    Zeit Temperatur Niederschläge Wind Luftdruck Luftfeuchtigkeit
    00:00 +13°C° 0 mm 2 m/S 707 mmHg 52%
    01:00 +13°C° 0 mm 2 m/S 708 mmHg 44%
    02:00 +13°C° 0 mm 2 m/S 707 mmHg 43%
    03:00 +13°C° 0 mm 2 m/S 707 mmHg 42%
    04:00 +12°C° 0 mm 3 m/S 707 mmHg 41%
    05:00 +13°C° 0 mm 2 m/S 707 mmHg 44%
    06:00 +12°C° 0 mm 2 m/S 707 mmHg 48%
    07:00 +12°C° 0 mm 2 m/S 707 mmHg 51%
    08:00 +14°C° 0 mm 2 m/S 707 mmHg 45%
    09:00 +17°C° 0 mm 2 m/S 708 mmHg 40%
    10:00 +19°C° 0 mm 2 m/S 708 mmHg 34%
    11:00 +20°C° 0 mm 2 m/S 708 mmHg 32%
    12:00 +21°C° 0 mm 2 m/S 707 mmHg 30%
    13:00 +23°C° 0 mm 2 m/S 707 mmHg 28%
    14:00 +23°C° 0 mm 2 m/S 706 mmHg 30%
    15:00 +23°C° 0 mm 2 m/S 706 mmHg 32%
    16:00 +23°C° 0 mm 2 m/S 706 mmHg 34%
    17:00 +20°C° 0 mm 2 m/S 706 mmHg 40%
    18:00 +18°C° 0 mm 2 m/S 706 mmHg 46%
    19:00 +17°C° 0 mm 2 m/S 706 mmHg 52%
    20:00 +16°C° 0 mm 1 m/S 706 mmHg 53%
    21:00 +16°C° 0 mm 1 m/S 706 mmHg 55%
    22:00 +15°C° 0 mm 1 m/S 706 mmHg 57%
    23:00 +15°C° 0 mm 1 m/S 705 mmHg 55%

    Morgen, 27 Juli, Donnerstag

    Zeit Temperatur Niederschläge Wind Luftdruck Luftfeuchtigkeit
    00:00 +15°C° 0 mm 2 m/S 705 mmHg 54%
    01:00 +15°C° 0 mm 2 m/S 705 mmHg 53%
    02:00 +15°C° 0 mm 2 m/S 704 mmHg 53%
    03:00 +15°C° 0 mm 2 m/S 704 mmHg 52%
    04:00 +15°C° 0 mm 2 m/S 704 mmHg 52%
    05:00 +15°C° 0 mm 2 m/S 704 mmHg 53%
    06:00 +15°C° 0 mm 2 m/S 704 mmHg 53%
    07:00 +15°C° 0 mm 2 m/S 704 mmHg 54%
    08:00 +17°C° 0 mm 2 m/S 704 mmHg 48%
    09:00 +20°C° 0 mm 2 m/S 704 mmHg 43%
    10:00 +24°C° 0 mm 2 m/S 704 mmHg 37%
    11:00 +25°C° 0 mm 2 m/S 704 mmHg 34%
    12:00 +26°C° 0 mm 2 m/S 703 mmHg 30%
    13:00 +28°C° 0 mm 2 m/S 702 mmHg 27%
    14:00 +27°C° 0 mm 2 m/S 702 mmHg 27%
    15:00 +27°C° 0 mm 1 m/S 702 mmHg 28%
    16:00 +27°C° 0 mm 1 m/S 702 mmHg 28%
    17:00 +25°C° 0 mm 1 m/S 702 mmHg 34%
    18:00 +23°C° 0 mm 1 m/S 703 mmHg 40%
    19:00 +21°C° 0 mm 1 m/S 703 mmHg 46%
    20:00 +20°C° 0 mm 1 m/S 703 mmHg 46%
    21:00 +20°C° 0 mm 1 m/S 703 mmHg 46%
    22:00 +19°C° 0 mm 2 m/S 703 mmHg 46%
    23:00 +18°C° 0 mm 2 m/S 703 mmHg 45%

    übermorgen, 28 Juli, Freitag

    Zeit Temperatur Niederschläge Wind Luftdruck Luftfeuchtigkeit
    00:00 +18°C° 0 mm 2 m/S 702 mmHg 45%
    01:00 +17°C° 0 mm 2 m/S 702 mmHg 44%
    02:00 +17°C° 0 mm 2 m/S 702 mmHg 43%
    03:00 +17°C° 0 mm 2 m/S 701 mmHg 42%
    04:00 +16°C° 0 mm 2 m/S 701 mmHg 40%
    05:00 +16°C° 0 mm 2 m/S 702 mmHg 41%
    06:00 +16°C° 0 mm 3 m/S 702 mmHg 42%
    07:00 +16°C° 0 mm 3 m/S 702 mmHg 43%
    08:00 +18°C° 0 mm 3 m/S 703 mmHg 41%
    09:00 +20°C° 0 mm 3 m/S 703 mmHg 40%
    10:00 +22°C° 0 mm 3 m/S 703 mmHg 39%
    11:00 +24°C° 0 mm 3 m/S 703 mmHg 38%
    12:00 +25°C° 0 mm 4 m/S 702 mmHg 37%
    13:00 +25°C° 0 mm 4 m/S 702 mmHg 37%
    14:00 +25°C° 0 mm 4 m/S 702 mmHg 38%
    15:00 +25°C° 0 mm 4 m/S 701 mmHg 39%
    16:00 +23°C° 0 mm 4 m/S 701 mmHg 40%
    17:00 +22°C° 0 mm 3 m/S 702 mmHg 47%
    18:00 +20°C° 0 mm 3 m/S 703 mmHg 53%
    19:00 +18°C° 0 mm 3 m/S 703 mmHg 60%
    20:00 +18°C° 0 mm 3 m/S 704 mmHg 62%
    21:00 +17°C° 0 mm 3 m/S 704 mmHg 64%
    22:00 +17°C° 0 mm 3 m/S 704 mmHg 65%
    23:00 +16°C° 0 mm 3 m/S 704 mmHg 67%

    29 Juli, Samstag

    Zeit Temperatur Niederschläge Wind Luftdruck Luftfeuchtigkeit
    00:00 +16°C° 0 mm 3 m/S 704 mmHg 69%
    01:00 +16°C° 0 mm 3 m/S 704 mmHg 71%
    02:00 +14°C° 0,1 mm 4 m/S 704 mmHg 72%
    03:00 +14°C° 0,1 mm 4 m/S 704 mmHg 73%
    04:00 +14°C° 0,1 mm 4 m/S 704 mmHg 74%
    05:00 +14°C° 0,1 mm 4 m/S 705 mmHg 75%
    06:00 +14°C° 0,1 mm 4 m/S 705 mmHg 77%
    07:00 +14°C° 0,1 mm 5 m/S 706 mmHg 78%
    08:00 +14°C° 0 mm 5 m/S 706 mmHg 74%
    09:00 +14°C° 0 mm 5 m/S 706 mmHg 71%
    10:00 +15°C° 0 mm 5 m/S 706 mmHg 67%
    11:00 +15°C° 0 mm 5 m/S 706 mmHg 65%
    12:00 +15°C° 0 mm 6 m/S 705 mmHg 63%
    13:00 +15°C° 0 mm 6 m/S 705 mmHg 61%
    14:00 +15°C° 0 mm 6 m/S 705 mmHg 63%
    15:00 +14°C° 0 mm 6 m/S 705 mmHg 64%
    16:00 +13°C° 0 mm 6 m/S 705 mmHg 66%
    17:00 +11°C° 0 mm 6 m/S 706 mmHg 69%
    18:00 +10°C° 0 mm 6 m/S 707 mmHg 73%
    19:00 +9°C° 0 mm 6 m/S 708 mmHg 76%
    20:00 +9°C° 0 mm 6 m/S 708 mmHg 77%
    21:00 +8°C° 0 mm 6 m/S 708 mmHg 78%
    22:00 +8°C° 0 mm 6 m/S 708 mmHg 79%
    23:00 +8°C° 0 mm 5 m/S 709 mmHg 80%

    30 Juli, Sonntag

    Zeit Temperatur Niederschläge Wind Luftdruck Luftfeuchtigkeit
    00:00 +7°C° 0 mm 5 m/S 709 mmHg 80%
    01:00 +7°C° 0 mm 5 m/S 709 mmHg 81%
    02:00 +7°C° 0 mm 5 m/S 709 mmHg 81%
    03:00 +6°C° 0 mm 5 m/S 709 mmHg 80%
    04:00 +6°C° 0 mm 5 m/S 709 mmHg 80%
    05:00 +6°C° 0 mm 5 m/S 709 mmHg 79%
    06:00 +6°C° 0 mm 5 m/S 710 mmHg 78%
    07:00 +6°C° 0 mm 4 m/S 711 mmHg 77%
    08:00 +6°C° 0 mm 5 m/S 711 mmHg 73%
    09:00 +7°C° 0 mm 5 m/S 711 mmHg 70%
    10:00 +8°C° 0 mm 5 m/S 711 mmHg 67%
    11:00 +8°C° 0 mm 6 m/S 710 mmHg 66%
    12:00 +8°C° 0 mm 6 m/S 710 mmHg 65%
    13:00 +9°C° 0 mm 6 m/S 709 mmHg 64%
    14:00 +8°C° 0 mm 6 m/S 709 mmHg 65%
    15:00 +8°C° 0 mm 6 m/S 709 mmHg 66%
    16:00 +8°C° 0 mm 5 m/S 709 mmHg 67%
    17:00 +7°C° 0 mm 5 m/S 710 mmHg 71%
    18:00 +6°C° 0 mm 5 m/S 711 mmHg 74%
    19:00 +6°C° 0 mm 4 m/S 711 mmHg 77%
    20:00 +6°C° 0 mm 4 m/S 711 mmHg 78%
    21:00 +5°C° 0 mm 4 m/S 711 mmHg 79%
    22:00 +5°C° 0 mm 4 m/S 711 mmHg 80%
    23:00 +5°C° 0 mm 4 m/S 711 mmHg 79%

    31 Juli, Montag

    Zeit Temperatur Niederschläge Wind Luftdruck Luftfeuchtigkeit
    00:00 +5°C° 0 mm 3 m/S 711 mmHg 79%
    01:00 +5°C° 0 mm 3 m/S 710 mmHg 78%
    02:00 +4°C° 0 mm 3 m/S 710 mmHg 77%
    03:00 +4°C° 0 mm 3 m/S 709 mmHg 76%
    04:00 +4°C° 0 mm 3 m/S 709 mmHg 75%
    05:00 +4°C° 0 mm 3 m/S 709 mmHg 74%
    06:00 +4°C° 0 mm 3 m/S 709 mmHg 72%
    07:00 +6°C° 0 mm 2 m/S 709 mmHg 71%
    08:00 +7°C° 0 mm 2 m/S 708 mmHg 65%
    09:00 +8°C° 0 mm 2 m/S 708 mmHg 60%
    10:00 +10°C° 0 mm 2 m/S 707 mmHg 54%
    11:00 +11°C° 0 mm 3 m/S 706 mmHg 51%
    12:00 +12°C° 0 mm 3 m/S 705 mmHg 48%
    13:00 +13°C° 0 mm 3 m/S 704 mmHg 45%
    14:00 +13°C° 0 mm 3 m/S 704 mmHg 46%
    15:00 +13°C° 0 mm 4 m/S 703 mmHg 46%
    16:00 +13°C° 0 mm 4 m/S 703 mmHg 47%
    17:00 +12°C° 0 mm 3 m/S 703 mmHg 51%
    18:00 +11°C° 0 mm 3 m/S 704 mmHg 55%
    19:00 +9°C° 0 mm 3 m/S 704 mmHg 59%
    20:00 +9°C° 0 mm 3 m/S 704 mmHg 56%
    21:00 +9°C° 0 mm 3 m/S 704 mmHg 54%
    22:00 +9°C° 0 mm 3 m/S 704 mmHg 52%
    23:00 +9°C° 0 mm 3 m/S 704 mmHg 51%
    Mehr zeigen